K3RTA-2 Weather Reports


Display with metric or nautical units.
time (UTC)temp
F
wind
direction
speed
MPH
gust
MPH
rain 1hr
in
rain 24hr
in
rain mn
in
humidity
%
barometer
mb
20260906190004 78 23 5.0 10.0 0.00 0.00 0.00 69 1014.4
20260906185504 78 24 5.0 10.0 0.00 0.00 0.00 68 1014.5
20260906185004 78 54 1.0 12.0 0.00 0.00 0.00 71 1014.5
20260906184504 78 22 2.0 12.0 0.00 0.00 0.00 68 1014.6
20260906184004 79 37 3.0 12.0 0.00 0.00 0.00 69 1014.6
20260906183504 79 34 3.0 10.0 0.00 0.00 0.00 65 1014.6
20260906182504 78 359 3.0 8.0 0.00 0.00 0.00 70 1014.7
20260906182004 78 40 2.0 9.0 0.00 0.00 0.00 70 1014.8
20260906181503 79 37 1.0 9.0 0.00 0.00 0.00 69 1014.8
20260906180505 79 38 3.0 8.0 0.00 0.00 0.00 69 1014.8
20260906180004 79 23 2.0 9.0 0.00 0.00 0.00 68 1014.8
20260906175504 78 22 4.0 10.0 0.00 0.00 0.00 68 1014.9
20260906174504 78 45 3.0 9.0 0.00 0.00 0.00 72 1014.8
20260906174003 78 37 3.0 13.0 0.00 0.00 0.00 71 1014.9
20260906173503 78 31 3.0 13.0 0.00 0.00 0.00 71 1014.9
20260906173004 78 55 2.0 13.0 0.00 0.00 0.00 74 1014.9
20260906172503 78 45 3.0 10.0 0.00 0.00 0.00 73 1014.9
20260906172004 78 37 3.0 10.0 0.00 0.00 0.00 74 1014.9
20260906171504 78 40 3.0 10.0 0.00 0.00 0.00 74 1015.0
20260906171005 78 8 3.0 10.0 0.00 0.00 0.00 75 1015.0
20260906170505 78 0 5.0 10.0 0.00 0.00 0.00 72 1014.9
20260906170004 78 34 3.0 10.0 0.00 0.00 0.00 74 1014.9
20260906165005 77 25 3.0 10.0 0.00 0.00 0.00 75 1014.9
20260906164004 78 55 3.0 10.0 0.00 0.00 0.00 75 1014.9
20260906163505 78 27 3.0 12.0 0.00 0.00 0.00 73 1014.9
20260906162504 78 43 2.0 12.0 0.00 0.00 0.00 76 1014.8
20260906162005 77 36 2.0 12.0 0.00 0.00 0.00 74 1014.8
20260906161504 77 51 3.0 12.0 0.00 0.00 0.00 76 1014.9
20260906161005 77 350 3.0 10.0 0.00 0.00 0.00 74 1014.9
20260906160505 77 33 2.0 10.0 0.00 0.00 0.00 75 1014.9
20260906160004 77 22 4.0 12.0 0.00 0.00 0.00 75 1015.0
20260906155004 77 27 2.0 9.0 0.00 0.00 0.00 75 1014.8
20260906154004 76 36 3.0 13.0 0.00 0.00 0.00 76 1014.9
20260906153504 76 28 6.0 13.0 0.00 0.00 0.00 76 1015.0
20260906153005 76 30 3.0 9.0 0.00 0.00 0.00 78 1014.9
20260906152504 76 52 3.0 10.0 0.00 0.00 0.00 77 1014.9
20260906152005 76 11 3.0 10.0 0.00 0.00 0.00 78 1014.9
20260906151504 76 13 4.0 9.0 0.00 0.00 0.00 78 1014.8
20260906151004 76 30 3.0 12.0 0.00 0.00 0.00 78 1014.8
20260906150004 75 32 3.0 13.0 0.00 0.00 0.00 79 1014.8
20260906145504 75 39 4.0 13.0 0.00 0.00 0.00 78 1014.8
20260906145004 75 13 5.0 12.0 0.00 0.00 0.00 80 1014.8
20260906144504 75 29 5.0 12.0 0.00 0.00 0.00 79 1014.6
20260906144004 75 39 5.0 12.0 0.00 0.00 0.00 79 1014.3
20260906143005 75 24 3.0 10.0 0.00 0.00 0.00 84 1014.4
20260906142504 74 42 5.0 10.0 0.00 0.00 0.00 83 1014.4
20260906142003 74 33 5.0 12.0 0.00 0.00 0.00 83 1014.3
20260906141503 74 18 2.0 12.0 0.00 0.00 0.00 85 1014.3
20260906140503 74 40 5.0 12.0 0.00 0.00 0.00 85 1014.2
20260906140004 74 23 5.0 10.0 0.00 0.00 0.00 85 1014.2
20260906135504 73 46 4.0 9.0 0.00 0.00 0.00 86 1014.1
20260906135004 73 29 3.0 10.0 0.00 0.00 0.00 87 1014.2
20260906134004 73 34 5.0 10.0 0.00 0.00 0.00 88 1014.2
20260906133504 73 38 4.0 10.0 0.00 0.00 0.00 87 1014.2
20260906132504 74 59 2.0 7.0 0.00 0.00 0.00 89 1014.2
20260906132004 73 33 3.0 8.0 0.00 0.00 0.00 89 1014.2
20260906131004 73 43 2.0 7.0 0.00 0.00 0.00 91 1014.0
20260906130504 72 45 3.0 10.0 0.00 0.00 0.00 91 1014.0
20260906130004 72 46 2.0 10.0 0.00 0.00 0.00 92 1013.9
20260906125004 71 19 2.0 8.0 0.00 0.00 0.00 94 1014.0
20260906124503 71 36 3.0 6.0 0.00 0.00 0.00 94 1013.9
20260906124004 71 32 1.0 5.0 0.00 0.00 0.00 95 1013.8
20260906123504 70 10 2.0 6.0 0.00 0.00 0.00 95 1013.7
20260906123005 69 32 2.0 6.0 0.00 0.00 0.00 96 1013.8
20260906122005 69 47 1.0 3.0 0.00 0.00 0.00 97 1013.7
20260906121504 68 21 1.0 2.0 0.00 0.00 0.00 97 1013.6
20260906121004 67 27 0.0 2.0 0.00 0.00 0.00 97 1013.6
20260906120504 67 8 0.0 2.0 0.00 0.00 0.00 98 1013.6
20260906115507 66 39 0.0 1.0 0.00 0.00 0.00 98 1013.6
20260906115004 65 37 0.0 1.0 0.00 0.00 0.00 98 1013.6
20260906114504 64 37 0.0 1.0 0.00 0.00 0.00 98 1013.6
20260906114004 64 45 0.0 0.0 0.00 0.00 0.00 98 1013.4
20260906113004 63 44 0.0 0.0 0.00 0.00 0.00 98 1013.3
20260906112504 62 44 0.0 1.0 0.00 0.00 0.00 98 1013.2
20260906112004 62 44 0.0 1.0 0.00 0.00 0.00 98 1013.1
20260906111504 62 46 0.0 0.0 0.00 0.00 0.00 98 1013.1
20260906110505 61 46 0.0 0.0 0.00 0.00 0.00 98 1013.0
20260906110004 61 46 0.0 0.0 0.00 0.00 0.00 98 1012.9
20260906105504 61 46 0.0 0.0 0.00 0.00 0.00 98 1012.9
20260906105003 61 46 0.0 0.0 0.00 0.00 0.00 98 1012.7
20260906104004 61 46 0.0 0.0 0.00 0.00 0.00 98 1012.7
20260906103505 61 46 0.0 0.0 0.00 0.00 0.00 97 1012.5
20260906103004 61 46 0.0 0.0 0.00 0.00 0.00 97 1012.4
20260906102504 61 46 0.0 0.0 0.00 0.00 0.00 97 1012.4
20260906102005 61 46 0.0 0.0 0.00 0.00 0.00 97 1012.3
20260906101504 61 46 0.0 0.0 0.00 0.00 0.00 97 1012.3
20260906101004 62 46 0.0 0.0 0.00 0.00 0.00 97 1012.2
20260906100504 62 46 0.0 0.0 0.00 0.00 0.00 97 1012.2
20260906100004 62 46 0.0 0.0 0.00 0.00 0.00 97 1012.2
20260906095504 62 46 0.0 0.0 0.00 0.00 0.00 97 1012.2
20260906094504 62 46 0.0 0.0 0.00 0.00 0.00 97 1012.0
20260906093504 62 46 0.0 0.0 0.00 0.00 0.00 97 1011.9
20260906093004 62 46 0.0 0.0 0.00 0.00 0.00 97 1011.8
20260906092504 62 46 0.0 0.0 0.00 0.00 0.00 97 1011.8
20260906091005 62 46 0.0 0.0 0.00 0.00 0.00 97 1011.8
20260906090504 63 46 0.0 0.0 0.00 0.00 0.00 97 1011.8
20260906090005 63 46 0.0 0.0 0.00 0.00 0.00 97 1011.8
20260906084504 63 46 0.0 0.0 0.00 0.00 0.00 97 1011.7
20260906084004 63 46 0.0 0.0 0.00 0.00 0.00 97 1011.7
20260906083504 63 46 0.0 0.0 0.00 0.00 0.00 97 1011.6
20260906082504 63 46 0.0 0.0 0.00 0.00 0.00 97 1011.7
20260906082004 63 46 0.0 0.0 0.00 0.00 0.00 97 1011.6
20260906081005 63 46 0.0 0.0 0.00 0.00 0.00 97 1011.5
20260906080004 63 46 0.0 0.0 0.00 0.00 0.00 97 1011.4
20260906075504 63 46 0.0 0.0 0.00 0.00 0.00 97 1011.5
20260906075004 63 46 0.0 0.0 0.00 0.00 0.00 97 1011.4
20260906074505 63 46 0.0 0.0 0.00 0.00 0.00 97 1011.5
20260906074005 63 46 0.0 0.0 0.00 0.00 0.00 97 1011.4
20260906073505 63 46 0.0 0.0 0.00 0.00 0.00 97 1011.4
20260906073005 63 46 0.0 1.0 0.00 0.00 0.00 97 1011.4
20260906072004 63 46 0.0 0.0 0.00 0.00 0.00 97 1011.3
20260906071504 63 46 0.0 0.0 0.00 0.00 0.00 97 1011.3
20260906071004 63 46 0.0 0.0 0.00 0.00 0.00 97 1011.3
20260906070504 63 46 0.0 0.0 0.00 0.00 0.00 97 1011.3
20260906070004 63 46 0.0 0.0 0.00 0.00 0.00 97 1011.3
20260906065504 63 46 0.0 0.0 0.00 0.00 0.00 97 1011.2
20260906065004 63 46 0.0 0.0 0.00 0.00 0.00 97 1011.2
20260906064004 63 46 0.0 0.0 0.00 0.00 0.00 97 1011.2
20260906063005 63 46 0.0 0.0 0.00 0.00 0.00 97 1011.3
20260906062504 64 46 0.0 0.0 0.00 0.00 0.00 97 1011.2
20260906062004 64 46 0.0 0.0 0.00 0.00 0.00 97 1011.2
20260906061505 64 46 0.0 0.0 0.00 0.00 0.00 97 1011.3
20260906061004 64 46 0.0 0.0 0.00 0.00 0.00 97 1011.4
20260906060505 64 46 0.0 0.0 0.00 0.00 0.00 97 1011.5
20260906055505 64 46 0.0 0.0 0.00 0.00 0.00 97 1011.6
20260906055004 64 46 0.0 0.0 0.00 0.00 0.00 97 1011.6
20260906054504 64 46 0.0 0.0 0.00 0.00 0.00 97 1011.6
20260906054005 64 46 0.0 0.0 0.00 0.00 0.00 97 1011.6
20260906052504 64 46 0.0 0.0 0.00 0.00 0.00 97 1011.7
20260906051504 64 46 0.0 0.0 0.00 0.00 0.00 97 1011.8
20260906050504 64 46 0.0 0.0 0.00 0.00 0.00 97 1011.8
20260906050004 65 46 0.0 0.0 0.00 0.00 0.00 97 1011.9
20260906045004 65 46 0.0 0.0 0.00 0.00 0.00 97 1011.9
20260906044504 65 46 0.0 0.0 0.00 0.00 0.00 97 1012.0
20260906044005 65 46 0.0 0.0 0.00 0.00 0.00 97 1011.9
20260906043504 65 46 0.0 0.0 0.00 0.00 0.00 96 1011.9
20260906042504 65 46 0.0 0.0 0.00 0.00 0.00 96 1012.0
20260906042004 65 46 0.0 0.0 0.00 0.00 0.00 96 1012.0
20260906041504 65 46 0.0 0.0 0.00 0.00 0.00 96 1012.0
20260906041004 65 46 0.0 0.0 0.00 0.00 0.00 96 1012.0
20260906040504 65 46 0.0 0.0 0.00 0.00 0.00 96 1012.1
20260906040004 66 46 0.0 0.0 0.00 0.00 0.00 96 1012.0
20260906035504 66 46 0.0 0.0 0.00 0.00 0.00 96 1012.1
20260906035004 66 46 0.0 0.0 0.00 0.00 0.00 96 1012.1
20260906034504 66 46 0.0 0.0 0.00 0.00 0.00 96 1012.2
20260906034004 66 46 0.0 0.0 0.00 0.00 0.00 96 1012.1
20260906032505 66 46 0.0 0.0 0.00 0.00 0.00 96 1012.2
20260906032004 66 46 0.0 0.0 0.00 0.00 0.00 96 1012.1
20260906031004 66 46 0.0 0.0 0.00 0.00 0.00 96 1012.2
20260906030504 66 46 0.0 0.0 0.00 0.00 0.00 96 1012.2
20260906030004 66 46 0.0 0.0 0.00 0.00 0.00 96 1012.2
20260906025504 66 46 0.0 0.0 0.00 0.00 0.00 96 1012.1
20260906024004 67 46 0.0 0.0 0.00 0.00 0.00 95 1012.2
20260906023504 67 46 0.0 0.0 0.00 0.00 0.00 95 1012.1
20260906023005 67 46 0.0 0.0 0.00 0.00 0.00 95 1012.1
20260906022504 67 46 0.0 0.0 0.00 0.00 0.00 95 1012.0
20260906022004 67 46 0.0 0.0 0.00 0.00 0.00 95 1012.0
20260906021004 67 46 0.0 0.0 0.00 0.00 0.00 95 1011.9
20260906020504 68 46 0.0 0.0 0.00 0.00 0.00 95 1011.9
20260906015504 68 46 0.0 0.0 0.00 0.00 0.00 95 1011.7
20260906015004 68 46 0.0 0.0 0.00 0.00 0.00 94 1011.7
20260906014505 68 46 0.0 0.0 0.00 0.00 0.00 94 1011.6
20260906014004 68 46 0.0 0.0 0.00 0.00 0.00 94 1011.6
20260906013503 68 46 0.0 0.0 0.00 0.00 0.00 94 1011.6
20260906013005 69 46 0.0 0.0 0.00 0.00 0.00 94 1011.4
20260906012504 69 46 0.0 0.0 0.00 0.00 0.00 94 1011.4
20260906012004 69 46 0.0 0.0 0.00 0.00 0.00 94 1011.4
20260906011005 69 46 0.0 0.0 0.00 0.00 0.00 93 1011.3
20260906010504 69 46 0.0 0.0 0.00 0.00 0.00 93 1011.4
20260906010004 69 46 0.0 0.0 0.00 0.00 0.00 93 1011.4
20260906005504 69 46 0.0 0.0 0.00 0.00 0.00 93 1011.4
20260906005004 69 46 0.0 0.0 0.00 0.00 0.00 93 1011.4
20260906004503 69 45 0.0 0.0 0.00 0.00 0.00 93 1011.4
20260906004004 70 45 0.0 0.0 0.00 0.00 0.00 93 1011.3
20260906003505 70 45 0.0 0.0 0.00 0.00 0.00 93 1011.2
20260906003004 70 45 0.0 0.0 0.00 0.00 0.00 93 1011.2
20260906002005 70 45 0.0 0.0 0.00 0.00 0.00 92 1010.9
20260906001505 70 45 0.0 1.0 0.00 0.00 0.00 91 1010.9
20260906000504 71 45 0.0 0.0 0.00 0.00 0.00 90 1010.6
20260905234504 72 45 0.0 0.0 0.00 0.00 0.00 89 1010.7
20260905234004 72 45 0.0 0.0 0.00 0.00 0.00 89 1010.6
20260905233004 72 45 0.0 0.0 0.00 0.00 0.00 87 1010.7
20260905232004 73 45 0.0 0.0 0.00 0.00 0.00 85 1010.7
20260905231505 73 45 0.0 0.0 0.00 0.00 0.00 85 1010.6
20260905231005 74 45 0.0 0.0 0.00 0.00 0.00 84 1010.6
20260905230504 74 45 0.0 0.0 0.00 0.00 0.00 82 1010.6
20260905230005 75 45 0.0 0.0 0.00 0.00 0.00 81 1010.7
20260905225504 75 45 0.0 0.0 0.00 0.00 0.00 80 1010.7
20260905225004 75 45 0.0 0.0 0.00 0.00 0.00 80 1010.5
20260905224504 76 44 0.0 0.0 0.00 0.00 0.00 79 1010.5
20260905224004 76 45 0.0 0.0 0.00 0.00 0.00 78 1010.5
20260905223505 76 45 0.0 1.0 0.00 0.00 0.00 78 1010.5
20260905222504 77 82 1.0 3.0 0.00 0.00 0.00 75 1010.4
20260905222004 77 15 0.0 2.0 0.00 0.00 0.00 75 1010.4
20260905221504 77 20 1.0 2.0 0.00 0.00 0.00 74 1010.5
20260905221004 77 37 1.0 3.0 0.00 0.00 0.00 75 1010.4
20260905220504 78 40 1.0 3.0 0.00 0.00 0.00 74 1010.4
20260905220004 78 51 1.0 6.0 0.00 0.00 0.00 73 1010.3
20260905215504 78 50 2.0 6.0 0.00 0.00 0.00 73 1010.4
20260905215005 78 21 1.0 6.0 0.00 0.00 0.00 73 1010.3
20260905214504 78 58 1.0 3.0 0.00 0.00 0.00 73 1010.2
20260905214005 79 33 1.0 7.0 0.00 0.00 0.00 71 1010.2
20260905213504 79 30 2.0 7.0 0.00 0.00 0.00 70 1010.0
20260905213004 79 55 1.0 5.0 0.00 0.00 0.00 71 1009.9
20260905212504 79 12 1.0 5.0 0.00 0.00 0.00 70 1010.1
20260905212004 79 45 2.0 6.0 0.00 0.00 0.00 72 1010.0
20260905211004 79 66 1.0 5.0 0.00 0.00 0.00 74 1009.8
20260905210504 78 42 1.0 5.0 0.00 0.00 0.00 76 1009.7
20260905210004 78 39 2.0 5.0 0.00 0.00 0.00 75 1009.7
20260905205504 78 41 1.0 7.0 0.00 0.00 0.00 75 1009.7
20260905204504 78 21 3.0 9.0 0.00 0.00 0.00 74 1009.6
20260905204005 79 52 3.0 9.0 0.00 0.00 0.00 73 1009.6
20260905203504 79 355 1.0 3.0 0.00 0.00 0.00 69 1009.6
20260905203005 80 336 1.0 3.0 0.00 0.00 0.00 71 1009.7
20260905202504 79 16 0.0 5.0 0.00 0.00 0.00 71 1009.7
20260905202004 79 7 2.0 5.0 0.00 0.00 0.00 71 1009.7
20260905201005 80 24 2.0 5.0 0.00 0.00 0.00 70 1009.7
20260905200505 80 25 0.0 6.0 0.00 0.00 0.00 70 1009.8
20260905195505 81 21 2.0 6.0 0.00 0.00 0.00 69 1009.9
20260905195004 81 348 0.0 5.0 0.00 0.00 0.00 70 1009.9
20260905194005 81 44 0.0 2.0 0.00 0.00 0.00 69 1010.0
20260905193504 80 351 0.0 3.0 0.00 0.00 0.00 68 1010.3
20260905193005 80 314 0.0 3.0 0.00 0.00 0.00 69 1010.4
20260905192504 80 350 1.0 5.0 0.00 0.00 0.00 69 1010.6
20260905192004 80 27 0.0 5.0 0.00 0.00 0.00 69 1010.6
20260905191004 80 359 2.0 7.0 0.00 0.00 0.00 68 1010.6
20260905190504 80 326 1.0 6.0 0.00 0.00 0.00 68 1010.6